CZ-3C DEB, 48544

Orbit data source: Space-Track

CZ-3C DEB, 48544 is space debris in HEO originally from a launch on Sun, 31 Oct 2010 UTC launched from the Xichang Space Center, China (XSC). Debris objects in space refer to the collection of defunct objects orbiting the Earth. Examples of debris include non-operational satellites, rocket bodies, and fragments generated from explosions, collisions, or faulty payload assembly.

Loading next visibility...
Identifier
48544, 2010-057BP
Orbit
HEO
Country
Flag of CNCN / PRC
Related business
Manufacturer
CALT
Mission
Spacecraft
Bus & Motor
Unknown
Mass
Unknown
Launch date (UTC)
2010-10-31 (15 years ago)
Launch vehicle
Unknown
Launch site
Xichang Space Center, China (XSC)
Object type
Payload
Rocket body
Debris
Shape & HBR
Unknown shape, 0.3 m
Radar Cross Section
Medium (>0.1 m² and <1 m²)

Expand to show TLE details & history
Last TLE update: 2 weeks ago

TLE from 2 weeks ago
0 CZ-3C DEB
1 48544U 10057BP  25284.26964075  .00005012  00000-0  38283-2 0  9992
2 48544  20.3866 187.1144 4851641 236.4016  67.7412  5.70700235214596
Epoch: 2025-10-11T06:28Z
TLE epoch observation values (Epoch: 2025-10-11T06:28:16.960Z)
Latitude
0.00007°
Longitude
69.96251°
Altitude
7,455.23 km
Speed
5.244 km/s
True Right ascension
12h 28m 32s
True Declination
0° 00' 00"
Sunlit
Object was in daylight at epoch
Visualization orbit readout
Latitude
Unknown
Longitude
Unknown
Altitude
Unknown
Speed
Unknown
Apparent Right ascension
Unknown
Apparent Declination
Unknown
Sunlit
N/A
Visualization observer readout
Local Sidereal Time
06:30:11
Azimuth
Unknown
Elevation
Unknown
Doppler factor
Unknown
Orbital elements
Apogee altitude
13,272.273 km
Perigee altitude
433.727 km
Semi-major axis
13,231.137 km
Eccentricity
0.48516
Inclination
20.3866°
RAAN
187.1144°
Arg. of periapsis
236.4016°
True anomaly
123.65295°
Mean anomaly
67.7412°
Eccentric anomaly
95.415°
Mean motion
1.42609 °/min
Orbital period
252.44 mins
BSTAR
0.0038283
Loading maneuver chart data...
Computing Atmospheric mass density...
Loading historical data...
Loading historical data...
Loading historical data...
Loading historical data...
Loading historical data...
Loading historical data...
Loading historical data...

Documentation

Showing up to 5 results
|